Date,TemperatureHighF,TemperatureAvgF,TemperatureLowF,DewpointHighF,DewpointAvgF,DewpointLowF,HumidityHigh,HumidityAvg,HumidityLow,PressureMaxIn,PressureMinIn,WindSpeedMaxMPH,WindSpeedAvgMPH,GustSpeedMaxMPH,PrecipitationSumIn
2013-1-1,26.2,17.7,9.9,18.5,11.4,2.8,82,76,70,30.04,29.83,0,0,0,0.00
2013-1-2,32.9,16.0,4.8,22.3,8.7,-2.6,82,73,59,30.11,30.01,3,0,3,0.00
2013-1-3,18.3,9.5,0.0,9.5,2.7,-9.0,80,73,65,30.06,29.94,4,1,6,0.00
2013-1-4,32.2,19.4,-1.8,18.1,8.8,-10.7,79,63,52,29.94,29.84,6,1,6,0.00
2013-1-5,41.9,27.6,21.6,29.8,18.7,13.6,77,69,56,29.99,29.88,6,1,6,0.01
2013-1-6,30.4,27.0,22.6,25.2,19.6,14.7,83,73,63,29.89,29.79,5,1,5,0.00
2013-1-7,41.5,32.6,25.5,30.6,25.0,19.6,81,73,62,29.85,29.73,8,2,11,0.02
2013-1-8,44.2,38.8,32.4,36.9,32.7,26.6,93,79,66,29.85,29.71,11,3,11,0.01
2013-1-9,45.1,40.1,36.3,38.5,34.5,30.9,92,80,71,29.86,29.62,14,3,15,0.01
2013-1-10,43.2,33.8,21.6,33.4,25.5,15.6,83,71,59,29.63,29.48,15,2,15,0.00
2013-1-11,32.2,23.6,16.2,23.0,15.2,8.4,81,70,53,29.67,29.57,6,1,6,0.00
2013-1-12,27.1,17.4,9.5,16.5,8.5,1.0,81,68,49,29.84,29.66,11,1,11,0.00
2013-1-13,26.8,12.9,4.5,11.5,2.2,-4.0,74,63,41,29.91,29.81,7,1,8,0.00
2013-1-14,27.7,13.8,2.7,8.6,1.0,-5.8,68,57,33,30.01,29.89,7,2,7,0.00
2013-1-15,39.7,23.5,10.2,20.5,11.2,-1.7,70,60,42,30.10,29.95,10,2,10,0.00
2013-1-16,47.3,31.8,20.8,26.2,18.6,10.9,71,59,42,30.23,30.10,8,2,10,0.00
2013-1-17,50.4,33.1,21.6,23.7,19.0,13.5,72,57,30,30.23,30.12,8,2,10,0.00
2013-1-18,51.3,35.1,26.1,26.1,20.1,15.3,71,56,30,30.13,30.01,8,2,8,0.00
2013-1-19,53.2,35.2,25.2,24.8,20.0,14.4,66,55,27,30.03,29.96,8,2,11,0.00
2013-1-20,53.4,34.1,25.0,25.0,19.3,14.2,68,57,22,30.05,29.97,8,2,8,0.00
2013-1-21,46.4,30.7,22.6,24.6,18.3,14.7,72,61,39,30.06,29.95,8,1,8,0.00
2013-1-22,50.9,32.4,22.8,22.3,16.7,12.2,71,54,25,29.96,29.84,8,2,8,0.00
2013-1-23,52.0,34.4,27.0,24.3,19.0,14.2,77,55,25,29.86,29.69,8,1,9,0.00
2013-1-24,47.1,40.0,34.3,37.6,29.4,19.4,91,68,40,29.83,29.55,13,2,13,0.00
2013-1-25,49.1,40.6,31.8,42.4,36.0,31.3,99,84,63,29.84,29.78,8,2,11,0.01
2013-1-26,43.2,39.7,33.3,41.9,38.5,32.7,99,96,90,29.82,29.61,8,2,10,0.01
2013-1-27,40.8,33.2,27.3,34.0,24.3,19.9,97,70,52,29.69,29.59,9,2,9,0.01
2013-1-28,37.4,30.3,24.4,26.8,23.1,18.5,86,75,50,29.74,29.66,10,1,10,0.00
2013-1-29,36.0,32.9,29.1,27.9,26.1,24.6,85,76,64,29.77,29.68,10,2,13,0.01
2013-1-30,45.9,38.1,34.5,34.0,29.6,26.6,78,71,60,30.04,29.76,9,2,15,0.01
2013-1-31,47.1,39.0,33.3,36.5,32.0,27.0,87,76,65,30.07,30.03,8,2,8,0.00
2013-2-1,46.4,34.5,27.5,34.5,29.1,22.6,93,81,59,30.04,29.94,5,1,5,0.00
2013-2-2,49.8,33.8,23.9,35.2,26.3,19.8,91,75,48,30.05,29.95,5,1,8,0.00
2013-2-3,49.5,34.3,23.7,34.3,27.3,20.1,89,77,51,30.05,29.92,4,1,5,0.00
2013-2-4,55.9,41.6,29.7,31.1,27.3,22.1,83,59,27,29.94,29.83,6,2,7,0.00
2013-2-5,53.4,42.3,32.4,29.7,25.7,17.4,74,53,25,29.85,29.63,7,1,7,0.00
2013-2-6,45.7,38.1,32.4,34.9,26.9,19.6,84,65,49,29.74,29.60,12,2,12,0.00
2013-2-7,46.6,37.1,30.7,30.6,25.6,21.2,79,64,42,29.78,29.57,11,2,11,0.00
2013-2-8,39.0,32.5,26.1,28.8,23.7,16.5,87,71,46,29.73,29.57,6,1,9,0.00
2013-2-9,38.5,28.3,17.6,26.8,18.3,11.5,87,68,39,29.81,29.72,12,1,12,0.00
2013-2-10,42.8,29.2,17.8,29.7,21.6,12.0,86,74,59,29.88,29.77,8,1,8,0.00
2013-2-11,44.2,31.0,20.8,33.6,21.3,16.3,93,69,42,29.92,29.86,8,1,8,0.00
2013-2-12,50.2,34.0,23.2,33.1,24.7,18.0,87,70,45,29.99,29.85,8,2,8,0.00
2013-2-13,50.0,36.4,27.3,35.4,28.2,23.7,92,74,45,30.07,29.98,8,1,8,0.00
2013-2-14,46.8,36.9,27.9,35.8,29.6,23.2,91,75,59,30.09,30.01,6,1,6,0.00
2013-2-15,53.2,36.7,27.5,36.1,30.0,22.8,92,78,51,30.15,30.09,6,1,8,0.00
2013-2-16,59.2,39.1,26.8,38.8,31.4,22.8,92,76,43,30.13,29.92,6,1,6,0.00
2013-2-17,52.2,37.1,22.8,34.2,26.0,18.5,84,66,36,29.92,29.81,11,2,11,0.00
2013-2-18,44.6,30.3,20.1,27.3,18.5,7.0,87,65,23,29.84,29.68,5,1,6,0.00
2013-2-19,41.9,32.0,23.7,25.9,20.6,14.7,81,64,35,29.68,29.39,8,1,8,0.00
2013-2-20,39.9,30.0,20.5,25.9,20.7,16.0,83,69,49,29.63,29.36,7,1,8,0.00
2013-2-21,41.2,30.3,19.4,25.9,20.1,15.1,84,67,45,29.73,29.62,7,1,9,0.00
2013-2-22,38.7,31.3,20.7,27.3,22.9,16.9,88,71,50,29.80,29.72,8,2,9,0.00
2013-2-23,44.8,33.8,26.1,34.3,27.0,17.8,91,76,58,29.78,29.55,14,2,14,0.02
2013-2-24,37.2,29.2,21.7,26.1,19.1,15.6,81,66,43,29.99,29.68,8,1,10,0.04
2013-2-25,46.9,32.4,20.5,30.7,22.9,15.6,82,68,50,29.99,29.71,7,2,10,0.00
2013-2-26,39.4,32.1,20.7,30.2,21.7,13.1,87,66,42,29.94,29.68,11,2,14,0.00
2013-2-27,46.9,33.6,20.5,22.6,18.2,12.4,80,56,26,29.97,29.87,8,1,8,0.00
2013-2-28,45.7,37.7,30.4,32.5,26.0,18.5,81,63,53,29.97,29.90,7,2,7,0.00
2013-3-1,51.1,42.7,37.2,42.1,37.8,31.3,92,83,71,30.14,29.90,7,2,12,0.00
2013-3-2,62.1,47.1,37.8,40.1,36.1,31.5,90,68,37,30.13,30.01,9,2,9,0.00
2013-3-4,44.2,30.7,19.8,15.3,12.5,6.3,77,50,23,29.86,29.80,6,1,8,0.00
2013-3-5,54.5,31.7,15.8,24.8,17.8,10.8,86,60,23,29.85,29.62,5,1,6,0.00
2013-3-6,46.4,34.0,24.8,38.8,28.5,18.9,96,81,61,29.62,29.33,4,0,5,0.01
2013-3-7,39.2,33.2,26.8,36.5,28.9,20.8,99,85,67,29.65,29.24,12,1,12,0.08
2013-3-8,43.9,33.1,23.9,31.1,24.7,19.2,85,72,47,29.70,29.62,5,1,8,0.01
2013-3-9,47.3,31.6,22.1,33.6,25.4,18.0,93,78,49,29.87,29.65,7,1,8,0.00
2013-3-10,54.1,35.1,20.5,30.7,20.8,13.8,86,61,21,30.11,29.86,10,1,11,0.00
2013-3-11,61.9,41.7,27.5,38.7,28.9,14.7,94,65,22,30.11,30.00,9,1,9,0.00
2013-3-12,55.6,43.3,32.7,42.6,37.3,30.4,99,81,59,30.03,29.89,5,1,5,0.00
2013-3-13,62.8,47.7,34.2,42.8,31.9,19.8,97,60,19,29.90,29.83,7,2,8,0.00
2013-3-14,68.7,49.2,37.2,39.0,33.9,29.7,85,58,30,29.91,29.83,6,1,8,0.00
2013-3-15,65.7,49.7,38.5,38.7,30.8,19.0,80,53,18,29.90,29.78,11,2,14,0.00
2013-3-16,58.6,45.8,33.1,41.4,35.2,28.0,87,69,42,29.91,29.82,6,1,8,0.00
2013-3-17,52.9,40.5,30.6,35.1,31.0,24.6,91,70,43,29.82,29.64,11,2,11,0.00
2013-3-18,43.5,33.5,27.0,25.9,21.1,14.2,84,61,42,29.84,29.72,11,2,13,0.00
2013-3-19,54.0,36.4,25.2,30.9,18.6,4.8,86,54,18,29.86,29.79,8,1,8,0.00
2013-3-20,54.0,40.9,26.4,42.8,31.3,17.8,99,72,36,29.80,29.41,9,1,11,0.14
2013-3-21,46.8,38.8,28.0,44.8,32.2,15.6,98,78,55,29.78,29.36,11,3,12,0.20
2013-3-22,41.2,33.2,25.9,28.9,22.0,14.9,76,64,47,29.84,29.77,14,4,14,0.00
2013-3-29,57.9,48.0,38.8,46.6,42.7,38.7,99,84,52,29.85,29.72,6,1,9,0.09
2013-3-30,64.8,46.9,32.4,48.7,39.9,30.7,99,79,45,29.93,29.85,5,1,7,0.09
2013-3-31,70.3,50.8,30.7,48.6,40.4,29.5,99,72,33,29.93,29.78,9,1,9,0.00
2013-4-1,65.5,50.3,30.2,45.7,40.2,29.7,99,72,40,29.78,29.66,8,1,9,0.00
2013-4-2,63.3,48.9,35.6,46.4,40.8,34.0,99,76,49,29.86,29.69,9,1,9,0.00
2013-4-3,65.1,50.0,34.2,45.0,40.0,33.1,99,71,46,29.88,29.81,5,1,6,0.00
2013-4-4,68.0,50.8,34.3,44.4,35.8,24.1,99,63,20,29.86,29.65,9,1,9,0.00
2013-4-5,60.8,49.0,39.7,45.1,40.8,37.9,94,74,51,29.65,29.49,15,2,15,0.00
2013-4-6,54.7,43.7,39.7,42.4,39.1,37.9,94,84,59,29.70,29.63,10,2,11,0.00
2013-4-21,59.2,47.6,34.3,39.7,33.4,28.6,88,61,33,29.93,29.87,9,2,11,0.20
2013-4-22,59.7,46.8,32.4,42.8,37.1,30.0,91,71,40,29.95,29.84,12,2,12,0.00
2013-4-23,53.4,39.7,20.8,34.9,24.0,14.2,89,57,28,30.06,29.95,10,2,11,0.00
2013-4-24,64.4,43.3,18.7,26.1,16.2,10.6,81,40,16,30.01,29.81,11,2,11,0.00
2013-4-25,68.0,46.8,22.5,26.4,20.3,12.9,70,41,13,29.97,29.75,10,1,10,0.00
2013-4-26,72.9,53.7,34.7,38.3,32.4,21.6,83,49,20,29.92,29.75,10,2,10,0.00
2013-4-27,77.4,56.6,37.9,43.5,32.9,19.6,84,50,14,30.00,29.91,8,1,9,0.00
2013-4-28,74.3,57.5,42.4,41.5,32.0,21.0,76,42,15,29.98,29.88,11,2,12,0.00
2013-4-29,64.8,52.9,36.7,42.8,34.4,20.8,90,53,24,29.91,29.74,11,2,11,0.00
2013-4-30,58.8,44.8,23.9,43.2,31.5,19.6,89,62,33,29.83,29.71,11,2,13,0.00
2013-5-1,52.2,36.6,20.3,28.2,20.2,14.0,88,56,23,30.06,29.80,10,2,13,0.00
2013-5-2,61.9,44.1,19.9,30.0,20.7,15.3,84,46,17,30.19,30.06,9,1,9,0.00
2013-5-3,43.2,30.5,26.4,27.9,22.1,18.9,80,71,52,30.18,30.15,1,0,1,0.00
2013-5-26,55.2,52.8,52.0,48.0,45.9,44.6,84,77,69,29.71,29.70,3,1,3,0.00
2013-5-27,61.0,49.9,41.0,49.1,40.9,38.1,95,73,49,29.77,29.68,8,1,8,0.34
2013-5-28,58.8,48.8,41.9,50.9,44.6,39.4,98,86,71,29.68,29.54,14,2,14,0.02
2013-5-29,62.8,53.2,42.6,46.2,41.8,36.3,99,68,39,29.65,29.45,9,2,10,0.08
2013-5-30,57.4,47.1,32.9,45.5,40.3,30.6,97,78,58,29.75,29.44,10,2,10,0.09
2013-5-31,63.9,46.5,29.1,42.4,35.5,27.9,99,69,39,29.94,29.74,8,1,8,0.00
2013-6-1,69.1,52.9,28.4,43.9,35.9,27.1,99,59,21,29.97,29.90,10,1,10,0.00
2013-6-2,69.6,47.5,34.7,47.1,40.0,32.5,99,78,40,29.94,29.88,3,0,4,0.00
2013-6-12,61.7,45.6,32.0,39.4,34.4,29.5,90,68,40,29.82,29.73,8,1,9,0.00
2013-6-13,65.3,48.6,30.4,45.1,36.7,28.4,98,66,40,29.85,29.65,10,1,10,0.00
2013-6-14,57.2,46.0,32.9,46.2,38.3,30.9,99,76,53,29.95,29.82,6,1,6,0.01
2013-6-15,70.2,54.7,32.2,44.4,35.5,28.9,99,55,22,29.94,29.73,8,1,8,0.00
2013-6-16,82.2,61.9,34.0,50.7,42.2,30.2,94,56,18,29.77,29.64,8,1,8,0.00
2013-6-17,81.7,62.5,42.8,55.2,48.0,41.5,96,64,27,29.85,29.72,8,1,8,0.00
2013-6-18,78.8,61.6,41.2,52.7,47.0,40.6,99,63,34,29.82,29.66,10,1,10,0.00
2013-6-19,63.3,51.7,43.0,51.6,45.6,40.3,97,81,57,29.71,29.61,7,1,8,0.02
2013-6-20,61.0,49.5,38.1,43.7,39.3,35.4,91,70,43,29.79,29.64,9,2,10,0.04
2013-6-21,63.0,49.4,36.5,44.4,38.3,33.4,96,68,39,29.84,29.75,8,1,8,0.00
2013-6-22,62.4,50.0,36.0,46.4,42.0,34.3,97,76,50,29.87,29.82,9,1,9,0.00
2013-6-23,75.4,61.1,35.2,50.4,45.3,34.3,99,60,29,29.84,29.63,8,1,9,0.00
2013-6-24,62.1,55.8,49.1,57.6,53.3,47.1,99,92,73,29.63,29.45,4,0,4,0.01
2013-6-25,61.3,53.7,48.6,53.2,50.1,48.4,99,88,68,29.53,29.44,5,1,5,0.08
2013-6-26,63.3,55.7,49.6,55.0,50.3,47.8,96,83,65,29.69,29.51,10,1,10,0.04
2013-6-27,66.6,57.6,46.0,61.5,54.6,45.3,99,90,76,29.86,29.68,5,0,5,0.02
2013-6-28,83.3,66.8,44.8,60.1,55.0,43.9,99,70,40,29.97,29.84,8,1,8,0.02
2013-6-29,88.9,72.9,49.8,63.3,58.3,49.5,99,65,33,29.98,29.82,9,1,9,0.00
2013-6-30,87.1,72.3,53.8,65.1,58.6,52.0,96,65,41,29.87,29.79,8,1,8,0.00
2013-7-1,92.1,77.7,51.6,65.5,58.0,50.9,99,55,30,29.84,29.70,8,1,31,0.00
2013-7-2,95.0,79.4,63.5,64.9,60.0,56.8,87,55,31,29.87,29.76,8,1,8,0.00
2013-7-3,96.8,79.6,61.3,67.6,59.3,48.9,92,55,20,29.88,29.79,8,1,8,0.00
2013-7-4,93.0,74.2,52.2,66.0,55.3,45.3,94,56,33,29.88,29.27,10,1,10,0.00
2013-7-5,82.9,66.5,45.9,51.4,44.9,33.6,92,52,18,29.83,29.63,11,1,11,0.00
2013-7-6,78.4,62.4,38.5,51.6,39.3,30.4,97,49,20,29.74,29.65,8,2,12,0.00
2013-7-7,82.8,63.4,36.9,51.1,39.7,30.9,94,49,18,30.10,29.60,10,1,10,0.00
2013-7-8,86.7,67.8,43.9,53.4,47.6,39.7,94,54,23,30.03,29.60,8,1,8,0.00
2013-7-9,84.6,67.1,47.5,52.7,43.7,34.3,94,50,19,29.93,29.75,7,1,10,0.00
2013-7-10,93.9,72.7,46.9,58.3,49.8,34.3,90,52,14,29.88,29.76,14,1,14,0.00
2013-7-11,93.6,73.0,52.5,58.6,49.5,41.0,88,49,21,29.82,29.66,8,1,8,0.00
2013-7-12,82.6,64.6,44.8,54.1,46.4,41.4,91,57,26,29.76,29.66,12,1,12,0.00
2013-7-13,81.3,61.1,39.6,51.1,41.5,33.1,95,55,21,29.85,29.68,8,1,9,0.00
2013-7-14,77.2,61.0,37.0,46.6,36.6,24.8,95,46,18,29.88,29.78,8,1,10,0.00
2013-7-15,87.8,67.5,39.9,51.8,42.8,30.4,82,47,21,29.88,29.73,11,1,11,0.00
2013-7-16,86.2,69.8,46.4,51.8,43.2,34.7,89,43,19,29.78,29.64,9,2,13,0.00
2013-7-17,81.7,68.4,54.9,50.7,44.1,35.2,72,44,24,29.81,29.64,11,2,13,0.00
2013-7-18,87.1,69.1,48.6,51.6,44.5,36.5,79,47,20,29.93,29.81,9,1,9,0.00
2013-7-19,89.4,71.3,48.4,54.9,46.0,35.1,84,48,15,29.94,29.80,10,1,10,0.00
2013-7-20,90.9,71.6,46.4,54.0,40.4,26.1,86,42,12,29.89,29.76,10,1,10,0.00
2013-7-21,92.5,71.6,48.0,54.3,43.3,25.0,83,46,10,29.81,29.69,12,1,13,0.00
2013-7-22,94.1,66.5,48.7,52.3,45.8,30.9,83,57,11,29.74,29.68,6,1,7,0.00
2013-7-26,72.0,61.7,57.6,43.2,42.0,38.7,58,49,30,29.89,29.86,2,0,2,0.00
2013-7-28,87.6,69.9,46.9,48.9,41.0,26.4,77,41,15,29.89,29.73,10,1,10,0.00
2013-7-29,82.6,63.6,44.8,46.4,40.1,28.0,85,50,15,29.76,29.67,14,1,14,0.00
2013-7-30,84.0,65.9,44.8,53.4,43.6,26.4,87,51,15,29.82,29.67,8,1,9,0.00
2013-7-31,85.5,67.4,49.1,52.3,42.2,21.7,88,48,11,29.89,29.80,12,1,12,0.00
2013-8-1,80.8,64.6,52.5,54.1,48.2,34.3,88,61,20,29.87,29.75,9,1,11,0.01
2013-8-2,70.7,55.7,43.3,62.4,51.7,42.8,99,87,50,29.83,29.74,5,1,6,0.27
2013-8-3,73.6,58.1,42.4,53.8,46.1,37.9,99,69,29,29.85,29.78,7,1,7,0.27
2013-8-4,81.9,65.0,41.9,54.3,44.7,33.3,99,55,18,29.86,29.77,8,1,8,0.00
2013-8-5,85.5,67.5,46.0,55.6,49.3,43.7,95,58,25,29.84,29.71,8,1,9,0.00
2013-8-6,85.1,67.6,50.9,58.5,49.2,35.8,85,57,20,29.82,29.72,8,1,10,0.00
2013-8-7,88.3,70.0,51.3,57.7,47.5,41.0,86,51,21,29.82,29.71,8,1,8,0.00
2013-8-8,81.3,67.3,51.1,52.9,48.3,42.3,81,53,27,29.82,29.75,10,1,10,0.00
2013-8-9,85.5,68.0,52.2,55.4,50.0,40.1,85,57,24,29.79,29.71,6,1,7,0.01
2013-8-10,83.8,64.4,47.8,57.9,52.0,46.8,97,68,32,29.78,29.65,9,1,10,0.01
2013-8-11,78.1,60.4,48.4,59.7,52.5,47.3,98,77,43,29.83,29.74,8,1,8,0.13
2013-8-12,79.0,61.6,46.9,54.9,49.9,45.7,97,69,33,29.84,29.74,10,1,10,0.00
2013-8-13,82.9,64.8,46.9,57.6,51.0,45.3,99,66,28,29.84,29.73,10,1,10,0.00
2013-8-14,85.6,67.2,50.0,55.6,49.6,42.8,97,59,25,29.86,29.73,8,1,8,0.00
2013-8-15,87.1,68.2,52.0,57.0,51.2,44.2,86,60,23,29.79,29.69,7,1,10,0.00
2013-8-16,88.5,67.9,52.2,56.8,51.4,44.2,89,61,22,29.80,29.69,12,1,12,0.00
2013-8-17,86.4,68.0,52.3,61.2,56.3,49.1,94,69,37,29.85,29.76,6,1,7,0.00
2013-8-18,86.5,66.2,48.6,62.1,54.0,46.8,99,69,40,29.88,29.76,10,1,10,0.00
2013-8-19,86.5,67.4,48.9,58.3,50.5,39.6,98,62,20,29.90,29.80,7,1,9,0.00
2013-8-20,88.3,68.0,48.0,56.5,50.6,45.1,92,60,24,29.88,29.77,11,1,11,0.00
2013-8-21,83.3,64.9,44.2,55.4,37.9,21.2,99,46,11,29.87,29.76,8,1,9,0.00
2013-8-22,80.8,65.9,46.2,50.7,41.5,33.4,76,45,19,29.83,29.74,9,1,9,0.00
2013-8-23,79.3,62.6,53.6,60.3,52.7,42.3,88,72,40,29.79,29.70,7,1,10,0.05
2013-8-24,82.0,64.6,49.5,55.9,51.6,47.3,92,66,36,29.73,29.62,6,1,8,0.00
2013-8-25,80.4,62.8,47.8,54.5,51.8,46.8,99,71,38,29.70,29.58,9,1,9,0.00
2013-8-26,76.6,57.9,48.6,60.8,52.5,48.4,99,84,48,29.75,29.61,10,1,14,0.05
2013-8-27,75.7,60.2,48.0,58.8,50.4,46.0,99,73,41,29.76,29.70,7,1,7,0.06
2013-8-28,84.6,63.8,45.1,56.1,48.8,35.6,99,66,20,29.76,29.59,10,1,52,0.00
2013-8-29,81.9,68.7,51.4,57.0,50.2,42.1,96,58,26,29.73,29.64,8,1,11,0.00
2013-8-30,81.0,65.1,50.5,55.0,52.2,47.1,95,67,32,29.88,29.71,11,1,11,0.00
2013-8-31,84.4,63.5,47.7,59.2,52.2,46.6,99,71,30,29.92,29.80,7,1,8,0.00
2013-9-1,88.3,66.4,45.5,59.0,51.2,44.8,99,63,27,29.84,29.67,8,1,8,0.00
2013-9-2,90.5,68.7,49.6,55.4,48.3,28.0,93,57,11,29.72,29.57,9,1,9,0.00
2013-9-3,85.1,63.6,48.6,56.3,50.4,37.0,97,68,20,29.73,29.60,7,1,8,0.00
2013-9-4,81.7,60.9,45.1,55.6,48.4,33.3,99,70,18,29.79,29.69,8,1,9,0.00
2013-9-5,83.8,61.4,45.3,54.0,48.3,33.3,99,68,18,29.80,29.71,10,1,10,0.00
2013-9-6,73.8,56.8,50.9,56.1,48.7,44.4,94,75,45,29.83,29.67,11,2,12,0.00
2013-9-7,72.5,54.9,41.0,52.9,47.8,40.8,99,80,48,29.90,29.83,10,1,11,0.01
2013-9-8,79.3,59.1,41.0,56.3,48.2,40.8,99,71,34,29.86,29.74,9,1,9,0.00
2013-9-9,76.1,57.5,42.4,58.1,47.7,41.9,99,73,38,29.86,29.81,10,1,11,0.00
2013-9-10,82.8,61.5,46.2,54.7,44.9,36.9,92,60,23,29.84,29.74,8,1,9,0.00
2013-9-11,85.1,65.2,45.0,55.0,46.6,40.6,91,56,25,29.81,29.70,8,1,10,0.00
2013-9-12,87.6,65.8,44.4,57.2,47.6,41.0,93,56,23,29.84,29.76,8,1,8,0.00
2013-9-13,89.1,67.8,46.6,58.1,47.8,41.9,91,53,21,29.83,29.71,8,1,8,0.00
2013-9-14,83.7,64.0,52.2,54.3,48.5,41.5,85,61,25,29.76,29.64,8,1,9,0.00
2013-9-15,87.3,67.8,52.3,57.7,50.1,45.9,83,57,26,29.69,29.56,7,1,9,0.00
2013-9-16,87.6,65.3,50.9,55.8,46.2,30.4,90,57,13,29.68,29.47,8,1,8,0.00
2013-9-17,72.0,54.7,43.0,52.3,46.0,41.0,95,75,44,29.71,29.62,9,1,9,0.00
2013-9-18,56.8,46.1,36.5,52.5,44.6,35.6,99,95,71,29.77,29.58,4,0,4,0.26
2013-9-19,66.9,47.6,33.4,48.7,38.2,31.5,99,74,36,29.82,29.76,7,1,7,0.00
2013-9-20,79.7,54.9,33.8,47.1,38.0,27.3,96,60,15,29.78,29.59,5,1,6,0.00
2013-9-21,74.3,55.1,36.3,47.7,41.3,32.0,91,65,23,29.60,29.41,6,1,8,0.00
2013-9-22,62.4,51.2,43.7,48.9,43.5,41.0,93,76,52,29.57,29.46,7,1,9,0.00
2013-9-23,59.4,50.8,43.9,50.5,44.4,41.2,93,79,61,29.65,29.52,9,2,11,0.00
2013-9-24,64.2,54.1,48.2,48.2,44.4,41.0,84,70,51,29.73,29.65,11,2,11,0.00
2013-9-25,54.3,46.8,39.2,45.3,40.1,36.5,95,78,57,29.67,29.55,8,2,10,0.00
2013-9-26,52.7,41.6,31.6,40.5,35.8,30.0,97,81,57,29.71,29.54,11,1,11,0.00
2013-9-27,54.9,40.5,29.1,43.5,34.5,28.9,99,81,55,29.86,29.70,9,1,9,0.00
2013-9-28,59.2,47.6,31.1,45.7,40.0,30.0,98,77,33,29.86,29.67,11,2,11,0.00
2013-9-29,62.8,52.7,41.4,51.3,47.2,41.2,99,83,57,29.67,29.40,17,3,17,0.33
2013-9-30,50.9,45.4,39.9,49.3,44.0,38.7,99,95,81,29.52,29.31,8,2,10,0.58
2013-10-1,52.3,41.5,36.9,39.6,36.9,34.0,99,85,60,29.65,29.49,13,2,14,0.59